Find Starlink 30292

NORAD ID: 57844 Int'l Des: 2023-141 Owner: SPXS Country: US Constellation: starlink operational
LEOCIRCULAR

当前视图

正在加载3D地球...

About Starlink 30292

Starlink 30292 (NORAD 57844) is a starlink constellation satellite (v2 mini) launched Sep 12, 2023 by SPXS of US. It operates in LEO, CIRCULAR orbit with a mass of 730.00 kg.

即将过境

Passes for default location (London). Set your location on the main map for personalized predictions.

高度历史

Loading altitude history...

两行轨道根数

1 57844U 23141E 26263.91444208 .00000532 00000-0 26893-4 0 9992
2 57844 53.1594 95.4972 0001268 90.3130 269.8018 15.34384665170249
Epoch: Sep 20, 2026 • Age: 24 hours

当前状态

高度 462.7 km
远地点 / 近地点 N/A
速度 7.64 km/s
星下点 17.31°N, 74.65°W
发射日期 Sep 12, 2023
运行时间 3 years
类型 internet

技术详情

分类 Payload
质量 730.00 kg
干质量 700.00 kg
长度 0.30 m
跨度 29.00 m
形状 ? Box + pan
制造商 SPXS
平台类型 Starlink V2M
阶段状态 In Orbit
所有者/国家 SPXS/US

Most Searched